Starlink 33726

operational
NORAD ID: 63437 Int'l Des: 2025-069 Owner: SPXS Country: US Constellation: starlink
LEOCIRCULAR

Über Starlink 33726

Beschreibung wird geladen...

Live-Position

3D-Globus wird geladen...

Nächste Überflüge

Höhenverlauf

Altitude vs Time

uPlot chart will show altitude changes over time

Zweizeiliger Elementsatz

1 63437U 25069E 25259.25002315 .00035511 00000-0 12059-2 0 9990
2 63437 53.1582 232.8422 0001748 107.2452 328.4953 15.30186160 5801
Epoch: 16. Sept. 2025 • Age: 5 hours

Aktueller Status

Höhe 490.0 km
Geschwindigkeit 7.62 km/s
Subsatellitenpunkt -42.17°S, 72.48°W
Startdatum 4. Apr. 2025
Alter 0.4 years
Typ internet

Technische Details

Klassifizierung Payload
Masse 575.00 kg
Trockenmasse 530.00 kg
Gesamtmasse 575.00 kg
Länge 0.30 m
Durchmesser 4.10 m
Spannweite 29.00 m
Form Box + pan
Hersteller SPXS
Bus-Typ Starlink V2MO
Phasenstatus In Orbit
Besitzer/Staat SPXS/US

Große Konstellationen

Loading constellations...